La Crosse, WI

2:39 PM CST on November 19, 2017 (GMT -0600)
La Crosse Municipal

Weather History for KLSE - June, 2013

Change the Weather History Date:

Wednesday, June 19, 2013

  Actual Average Record
Temperature  
Mean Temperature 69 °F 70 °F  
Max Temperature 82 °F 81 °F 98 °F (1953)
Min Temperature 56 °F 60 °F 43 °F (1982)
Degree Days  
Heating Degree Days 0 1  
Month to date heating degree days 44 33  
Since 1 June heating degree days 44  
Since 1 July heating degree days 7471 7190  
Cooling Degree Days 4 6  
Month to date cooling degree days 58 83  
Year to date cooling degree days 118 131  
Since 1 June cooling degree days 58  
Growing Degree Days 19 (Base 50)    
Moisture  
Dew Point 54 °F    
Average Humidity 58    
Maximum Humidity 73    
Minimum Humidity 42    
Precipitation  
Precipitation 0.00 in 0.15 in 3.12 in (1993)
Month to date precipitation 1.84 2.72  
Year to date precipitation 20.77 13.79  
Snow  
Snow 0.00 in 0.00 in 0.00 in (2002)
Month to date snowfall 0.0 0.0  
Since 1 June snowfall 0.0  
Since 1 July snowfall 60.6 43.3  
Snow Depth 0.00 in    
Sea Level Pressure  
Sea Level Pressure 30.05 in    
Wind  
Wind Speed 7 mph (SSE)    
Max Wind Speed 14 mph    
Max Gust Speed 18 mph    
Visibility 10 miles    
Events      
T = Trace of Precipitation, MM = Missing Value Source: NWS Daily Summary

Daily Weather History Graph

Daily Weather History Graph

Search for Another Location

Airport or City:

Trip Planner

Search our weather history database for the weather conditions in past years. The results will help you decide how hot, cold, wet, or windy it might be!

Date:

Astronomy

Jun. 19, 2013 Rise Set
Actual Time 5:22 AM CDT 8:50 PM CDT
Civil Twilight 4:46 AM CDT 9:26 PM CDT
Nautical Twilight 3:58 AM CDT 10:14 PM CDT
Astronomical Twilight 2:57 AM CDT 11:15 PM CDT
Moon 4:38 PM CDT 2:13 AM CDT
Length of Visible Light 16h 40m
Length of Day
15h 28m
Waxing Gibbous, 80% of the Moon is Illuminated
Jun 19
Waxing Gibbous
Jun 23
Full
Jun 29
Last Quarter
Jul 8
New
Jul 15
First Quarter

Hourly Weather History & Observations

Time (CDT) Temp. Heat Index Dew Point Humidity Pressure Visibility Wind Dir Wind Speed Gust Speed Precip Events Conditions
2:53 AM 59.0 °F - 48.0 °F 67% 30.08 in 10.0 mi ESE 4.6 mph - N/A   Clear
4:53 AM 57.0 °F - 48.0 °F 72% 30.07 in 10.0 mi SE 3.5 mph - N/A   Clear
5:53 AM 57.9 °F - 48.9 °F 72% 30.09 in 10.0 mi SSE 8.1 mph - N/A   Clear
6:53 AM 60.1 °F - 48.0 °F 64% 30.10 in 10.0 mi SE 6.9 mph - N/A   Clear
7:53 AM 64.0 °F - 46.9 °F 54% 30.12 in 10.0 mi South 10.4 mph - N/A   Clear
8:53 AM 66.9 °F - 48.0 °F 51% 30.11 in 10.0 mi South 11.5 mph - N/A   Clear
9:53 AM 70.0 °F - 50.0 °F 49% 30.10 in 10.0 mi South 9.2 mph - N/A   Scattered Clouds
10:53 AM 73.0 °F - 52.0 °F 48% 30.09 in 10.0 mi South 5.8 mph - N/A   Clear
11:53 AM 75.0 °F - 53.1 °F 46% 30.07 in 10.0 mi South 3.5 mph - N/A   Clear
12:53 PM 78.1 °F - 55.0 °F 45% 30.06 in 10.0 mi South 6.9 mph - N/A   Partly Cloudy
1:53 PM 80.1 °F 80.2 °F 55.9 °F 43% 30.04 in 10.0 mi South 8.1 mph 16.1 mph N/A   Clear
2:53 PM 81.0 °F 81.0 °F 57.0 °F 44% 30.03 in 10.0 mi South 9.2 mph - N/A   Clear
3:53 PM 81.0 °F 81.0 °F 57.0 °F 44% 30.02 in 10.0 mi South 9.2 mph - N/A   Clear
4:53 PM 81.0 °F 81.0 °F 57.0 °F 44% 30.02 in 10.0 mi SSW 8.1 mph - N/A   Clear
5:53 PM 81.0 °F 81.0 °F 57.0 °F 44% 29.99 in 10.0 mi SSW 9.2 mph - N/A   Clear
6:53 PM 80.1 °F 80.6 °F 57.9 °F 47% 29.99 in 10.0 mi SSE 10.4 mph - N/A   Clear
7:53 PM 78.1 °F - 57.9 °F 50% 30.00 in 10.0 mi SE 8.1 mph - N/A   Clear
8:53 PM 75.0 °F - 57.9 °F 55% 29.99 in 10.0 mi SE 5.8 mph - N/A   Clear
9:53 PM 72.0 °F - 59.0 °F 64% 30.01 in 10.0 mi ESE 3.5 mph - N/A   Clear
10:53 PM 71.1 °F - 59.0 °F 66% 30.02 in 10.0 mi ESE 4.6 mph - N/A   Clear
11:53 PM 68.0 °F - 59.0 °F 73% 30.02 in 10.0 mi ESE 5.8 mph - N/A   Clear